Regional Weather Roundup
Issued by NWS Cleveland, OH

Home | Current Version | Previous Version | Graphics & Text | Print | Product List | Glossary On
Versions: 1 2 3 4 5 6 7 8 9 10 11 12 13 14 15 16 17 18 19 20 21 22 23 24 25 26 27 28 29 30 31 32 33 34 35 36 37 38 39 40 41 42 43 44 45 46 47 48 49 50
000
ASUS41 KCLE 062310
RWRCLE
OHIO REGIONAL WEATHER ROUNDUP
NATIONAL WEATHER SERVICE WILMINGTON, OH
700 PM EDT MON JUL 06 2015

NOTE: "FAIR" INDICATES FEW OR NO CLOUDS BELOW 12,000 FEET WITH NO
SIGNIFICANT WEATHER AND/OR OBSTRUCTIONS TO VISIBILITY.

OHZ001>008-015>018-024>027-034-035-043-044-070000-
   NORTHWEST OHIO

CITY           SKY/WX    TMP DP  RH WIND       PRES   REMARKS
DEFIANCE       MOSUNNY   84  64  50 S10       29.95F
FINDLAY        SUNNY     83  63  50 S9        29.98S
TOLEDO EXPRESS SUNNY     82  63  52 S3        29.95F
TOLEDO EXEC    SUNNY     83  61  47 S9        29.97F
LIMA           SUNNY     81  64  56 SW7       29.99S
$$

OHZ009>014-019>023-028>033-038-089-070000-
   NORTHEAST OHIO

CITY           SKY/WX    TMP DP  RH WIND       PRES   REMARKS
CLE-HOPKINS    MOSUNNY   81  62  52 NE6       30.01F
CLE-LAKEFRONT  SUNNY     77  64  64 NE7       29.98F
CUY CO. ARPT   PTSUNNY   82  61  47 N8        30.02F
LORAIN-ELYRIA  SUNNY     82  64  54 CALM      30.00F
ASHTABULA      CLOUDY    73  68  84 NW3       30.02F
AKRON-CANTON   PTSUNNY   79  67  66 SE8       30.02F
WOOSTER        MOSUNNY   82  65  56 NW5       30.02F
MANSFIELD      SUNNY     81  62  52 SW7       30.02F
YOUNGSTOWN     LGT RAIN  73  69  87 NW3       30.02F
$$

OHZ042-051>053-060>062-070>072-077>081-070000-
  SOUTHWEST OHIO

CITY           SKY/WX    TMP DP  RH WIND       PRES   REMARKS
CINC-COVINGTON MOSUNNY   82  69  64 S6        30.01F HAZE
CINC-LUNKEN    MOSUNNY   82  68  62 S8        30.00S
HAMILTON       SUNNY     84  68  58 VRB3      30.01S
DAYTON         MOSUNNY   83  65  54 S10       30.01F
WRIGHT-PAT AFB SUNNY     83  63  51 SW6       30.00F
DAYTON GENERAL SUNNY     82  64  54 SW7       30.01S
WILMINGTON     SUNNY     81  63  54 S6        30.02F
$$

OHZ036-037-039>041-045>050-054>059-063>069-073>076-082>088-070000-
  CENTRAL AND SOUTHEAST OHIO

CITY           SKY/WX    TMP DP  RH WIND       PRES   REMARKS
COLUMBUS       MOSUNNY   81  60  48 SW9       30.01S
OSU AIRPORT    SUNNY     82  61  48 SW8       30.01F
BOLTON FIELD   SUNNY     81  64  57 SW7       30.02F
RICKENBACK AFB SUNNY     81  64  54 SW6       30.01F
NEWARK         SUNNY     83  64  52 SW9       30.01F
MARION         SUNNY     81  59  47 SW8       30.01F
LANCASTER      SUNNY     80  63  55 W7        30.02F
ZANESVILLE     PTSUNNY   82  65  56 VRB6      30.02F
NEW PHILLY     LGT RAIN  70  69  97 S5        30.02F FOG
$$



USA.gov is the U.S. government's official web portal to all federal, state and local government web resources and services.